Blaine, MN

7:12 PM CST on February 05, 2016 (GMT -0600)
Anoka County / Blaine Airport

Weather History for KANE - November, 2012

Change the Weather History Date:

Wednesday, November 14, 2012

  Actual Average Record
Temperature  
Mean Temperature 43 °F -  
Max Temperature 53 °F 39 °F 64 °F (2001)
Min Temperature 33 °F 25 °F 5 °F (1996)
Degree Days  
Heating Degree Days 22    
Moisture  
Dew Point 31 °F    
Average Humidity 68    
Maximum Humidity 81    
Minimum Humidity 41    
Precipitation  
Precipitation 0.00 in - - ()
Sea Level Pressure  
Sea Level Pressure 30.21 in    
Wind  
Wind Speed 6 mph (SSE)    
Max Wind Speed 9 mph    
Max Gust Speed -    
Visibility 10 miles    
Events      
Averages and records for this station are not official NWS values.
T = Trace of Precipitation, MM = Missing Value Source: NWS Daily Summary

Daily Weather History Graph

Daily Weather History Graph

Search for Another Location

Airport or City:

Trip Planner

Search our weather history database for the weather conditions in past years. The results will help you decide how hot, cold, wet, or windy it might be!

Date:

Astronomy

Nov. 14, 2012 Rise Set
Actual Time 7:10 AM CST 4:43 PM CST
Civil Twilight 6:38 AM CST 5:15 PM CST
Nautical Twilight 6:02 AM CST 5:51 PM CST
Astronomical Twilight 5:28 AM CST 6:26 PM CST
Moon 8:02 AM CST (11/14) 5:30 PM CST (11/14)
Length of Visible Light 10h 37m
Length of Day
9h 33m
New Moon, 1% of the Moon is Illuminated
Nov 14
New Moon
Nov 20
First Quarter
Nov 28
Full
Dec 6
Last Quarter
Dec 13
New

Hourly Weather History & Observations

Time (CST) Temp. Windchill Dew Point Humidity Pressure Visibility Wind Dir Wind Speed Gust Speed Precip Events Conditions
12:14 AM 39.2 °F 33.0 °F 28.4 °F 65% 30.26 in 10.0 mi SSE 9.2 mph - N/A   Overcast
12:34 AM 39.2 °F 34.2 °F 28.4 °F 65% 30.26 in 10.0 mi SSE 6.9 mph - N/A   Overcast
12:54 AM 39.2 °F 35.0 °F 28.4 °F 65% 30.26 in 10.0 mi SSE 5.8 mph - N/A   Overcast
1:14 AM 39.2 °F 34.2 °F 28.4 °F 65% 30.25 in 10.0 mi SSE 6.9 mph - N/A   Overcast
1:34 AM 39.2 °F 33.6 °F 28.4 °F 65% 30.25 in 10.0 mi SSE 8.1 mph - N/A   Mostly Cloudy
1:54 AM 39.2 °F 34.2 °F 28.4 °F 65% 30.25 in 10.0 mi SSE 6.9 mph - N/A   Overcast
2:14 AM 39.2 °F 34.2 °F 28.4 °F 65% 30.25 in 10.0 mi SE 6.9 mph - N/A   Overcast
2:34 AM 39.2 °F 35.9 °F 28.4 °F 65% 30.25 in 10.0 mi SE 4.6 mph - N/A   Overcast
2:54 AM 39.2 °F 37.0 °F 28.4 °F 65% 30.26 in 10.0 mi SE 3.5 mph - N/A   Overcast
3:14 AM 39.2 °F 35.9 °F 30.2 °F 70% 30.25 in 10.0 mi SE 4.6 mph - N/A   Overcast
3:34 AM 39.2 °F 35.9 °F 30.2 °F 70% 30.25 in 10.0 mi SE 4.6 mph - N/A   Overcast
3:54 AM 39.2 °F 37.0 °F 30.2 °F 70% 30.25 in 10.0 mi SE 3.5 mph - N/A   Overcast
4:14 AM 39.2 °F 37.0 °F 30.2 °F 70% 30.25 in 10.0 mi SE 3.5 mph - N/A   Overcast
4:34 AM 39.2 °F 35.9 °F 30.2 °F 70% 30.25 in 10.0 mi SE 4.6 mph - N/A   Overcast
4:54 AM 39.2 °F 35.9 °F 30.2 °F 70% 30.25 in 10.0 mi SE 4.6 mph - N/A   Overcast
5:14 AM 39.2 °F 37.0 °F 30.2 °F 70% 30.25 in 10.0 mi SSE 3.5 mph - N/A   Overcast
5:34 AM 37.4 °F 34.9 °F 30.2 °F 75% 30.25 in 10.0 mi SE 3.5 mph - N/A   Overcast
5:54 AM 37.4 °F 33.8 °F 30.2 °F 75% 30.25 in 10.0 mi SSE 4.6 mph - N/A   Overcast
6:13 AM 37.4 °F 34.9 °F 30.2 °F 75% 30.25 in 10.0 mi SE 3.5 mph - N/A   Mostly Cloudy
6:34 AM 35.6 °F 32.8 °F 28.4 °F 75% 30.25 in 10.0 mi SSE 3.5 mph - N/A   Mostly Cloudy
6:45 AM 35.6 °F 32.8 °F 28.4 °F 75% 30.25 in 10.0 mi SE 3.5 mph - N/A   Mostly Cloudy
6:54 AM 33.8 °F - 28.4 °F 81% 30.25 in 10.0 mi Calm Calm - N/A   Scattered Clouds
7:50 AM 33.8 °F - 28.4 °F 81% 30.25 in 10.0 mi Calm Calm - N/A   Scattered Clouds
8:55 AM 39.2 °F 35.0 °F 32.0 °F 75% 30.25 in 10.0 mi SSE 5.8 mph - N/A   Partly Cloudy
9:50 AM 42.8 °F 40.1 °F 32.0 °F 66% 30.25 in 10.0 mi SSE 4.6 mph - N/A   Mostly Cloudy
10:45 AM 44.6 °F 41.4 °F 32.0 °F 61% 30.25 in 10.0 mi South 5.8 mph - N/A   Mostly Cloudy
11:55 AM 48.2 °F - 32.0 °F 54% 30.23 in 10.0 mi South 5.8 mph - N/A   Mostly Cloudy
12:45 PM 50.0 °F - 30.2 °F 47% 30.21 in 10.0 mi South 5.8 mph - N/A   Mostly Cloudy
1:45 PM 53.6 °F - 30.2 °F 41% 30.20 in 10.0 mi South 9.2 mph - N/A   Mostly Cloudy
2:55 PM 53.6 °F - 30.2 °F 41% 30.19 in 10.0 mi SSW 9.2 mph - N/A   Mostly Cloudy
3:50 PM 51.8 °F - 30.2 °F 44% 30.19 in 10.0 mi South 9.2 mph - N/A   Mostly Cloudy
4:50 PM 48.2 °F - 32.0 °F 54% 30.17 in 10.0 mi SSE 5.8 mph - N/A   Mostly Cloudy
5:50 PM 42.8 °F 40.1 °F 33.8 °F 70% 30.17 in 10.0 mi SE 4.6 mph - N/A   Mostly Cloudy
6:45 PM 44.6 °F 41.4 °F 33.8 °F 66% 30.16 in 10.0 mi SE 5.8 mph - N/A   Mostly Cloudy
7:45 PM 42.8 °F 40.1 °F 33.8 °F 70% 30.16 in 10.0 mi SE 4.6 mph - N/A   Mostly Cloudy
8:50 PM 42.8 °F - 33.8 °F 70% 30.15 in 10.0 mi Calm Calm - N/A   Mostly Cloudy
9:14 PM 42.8 °F 41.1 °F 33.8 °F 70% 30.15 in 10.0 mi SE 3.5 mph - N/A   Scattered Clouds
9:34 PM 41.0 °F 39.0 °F 33.8 °F 76% 30.15 in 10.0 mi SSE 3.5 mph - N/A   Scattered Clouds
9:54 PM 39.2 °F 35.0 °F 33.8 °F 81% 30.15 in 10.0 mi SSE 5.8 mph - N/A   Mostly Cloudy
10:14 PM 41.0 °F 38.0 °F 33.8 °F 76% 30.15 in 10.0 mi SSE 4.6 mph - N/A   Mostly Cloudy
10:34 PM 41.0 °F 38.0 °F 33.8 °F 76% 30.15 in 10.0 mi SSE 4.6 mph - N/A   Mostly Cloudy
10:54 PM 42.8 °F 40.1 °F 35.6 °F 76% 30.14 in 10.0 mi SE 4.6 mph - N/A   Overcast
11:02 PM 42.8 °F 41.1 °F 35.6 °F 76% 30.14 in 10.0 mi SE 3.5 mph - N/A   Overcast
11:36 PM 42.8 °F 39.3 °F 35.6 °F 76% 30.14 in 10.0 mi SSE 5.8 mph - N/A   Overcast
11:54 PM 42.8 °F 38.0 °F 35.6 °F 76% 30.13 in 10.0 mi South 8.1 mph - N/A   Overcast